CAPE
1699 2125 1909 948 1275 1223 1354 1277 1064 695 1422 1565 2277 1916 1890 2040 962 893 731 38 12 8 11 0 0 0 0 0 1 10 42 82 46 45 82 129 123 113
1518 1727 1948 1292 1342 1251 1305 2497 1343 1373 1096 996 1262 1754 1740 1429 957 1033 342 64 55 61 41 2 0 0 0 0 0 1 10 35 82 75 49 48 47 91
1527 1562 1833 1808 1123 1367 1623 1544 1675 1509 1370 830 2129 1963 2159 1706 808 531 67 270 96 117 73 42 0 0 5 1 0 0 0 0 3 4 3 6 13 21
1743 1465 1398 1204 1815 1898 1452 1822 2424 1626 1296 1581 1695 1318 2254 1672 553 356 322 103 147 138 141 73 63 0 12 8 1 0 0 0 0 6 10 11 16 13
1760 1684 1527 1537 1886 1559 1723 1509 1245 1425 1799 1149 1279 2422 1816 983 298 169 196 186 163 133 105 68 44 39 7 0 10 0 0 0 0 7 2 2 1 3
1540 1858 1865 1593 1723 1873 1895 2041 1919 1758 1637 1694 1298 1695 2576 727 211 195 188 99 103 138 43 0 0 1 0 0 1 0 0 0 2 0 0 0 0 0
1578 1811 1901 1704 1281 1418 1485 2480 2010 1801 1402 1462 1300 3070 3252 910 412 157 152 87 137 41 65 21 0 0 0 0 0 1 0 0 0 4 5 0 0 0
1790 1712 1827 1291 1287 1013 652 451 846 2172 2087 2254 1247 2190 3322 2883 1501 638 72 46 9 33 22 24 0 0 0 2 2 0 0 0 0 0 0 0 0 0
1714 1683 1518 834 901 1640 1161 909 755 557 657 1686 1857 1679 2318 2365 2820 1650 549 213 307 30 12 3 0 0 0 0 2 10 10 3 9 0 0 0 0 0
1495 1692 1953 1923 1765 1670 1888 1862 1964 1932 1615 1229 1623 1819 1875 2054 2116 2486 1351 781 225 105 23 0 0 0 5 4 1 19 8 1 0 0 0 0 0 0
2172 2225 2098 2188 1785 1634 2183 1797 1670 1584 1026 1332 1136 865 952 798 1064 2114 1382 491 102 45 0 3 1 3 14 1 27 9 0 3 6 0 0 0 0 0
2176 2677 1424 1387 1581 1322 2038 2133 2020 2149 1641 1419 1003 541 480 461 334 878 1618 557 354 13 11 4 0 24 1 75 72 9 6 5 0 1 0 0 0 0
1704 1816 1784 988 1022 652 459 1182 1617 1442 1571 1981 2168 1434 1016 887 646 391 1402 1158 1018 152 31 18 2 62 77 96 65 12 11 16 31 17 0 0 0 0
600 733 833 444 276 130 143 159 136 135 238 691 1938 1762 1243 1206 759 750 418 248 283 184 30 23 31 52 72 54 50 6 10 35 22 13 0 0 0 0
81 58 42 53 57 76 61 54 41 61 95 139 302 393 508 493 199 188 149 121 99 88 5 3 47 52 3 4 7 20 23 38 25 3 0 0 0 0
0 0 0 0 0 0 3 19 1 16 60 87 108 120 184 187 135 101 103 133 170 111 33 7 34 23 3 9 0 0 34 2 0 15 86 117 73 2
0 6 0 1 3 7 0 2 24 10 10 27 33 84 199 253 213 181 145 45 21 5 4 48 20 2 11 5 1 34 25 64 62 123 136 16 0 3
8 3 0 0 0 0 0 0 0 2 0 7 8 5 2 0 0 0 0 0 2 2 13 9 8 3 3 0 26 209 174 147 114 78 23 0 0 0
4 8 8 3 0 0 0 0 0 0 2 5 5 5 1 0 0 0 0 0 0 2 4 2 1 4 0 0 18 51 43 46 38 0 0 0 0 3
21 26 17 17 13 0 0 0 0 0 0 0 0 0 0 0 1 0 0 6 3 2 3 2 3 2 0 0 0 15 3 3 0 0 0 1 1 0
57 15 19 20 27 26 2 17 0 1 0 0 0 0 0 0 0 2 0 1 1 0 0 1 0 0 0 0 0 0 0 0 1 8 15 21 23 32
127 118 85 101 38 38 39 6 0 1 0 0 0 0 0 1 0 0 2 1 1 0 0 0 0 0 0 0 0 3 3 3 0 0 0 0 8 19
78 160 128 132 22 74 16 22 1 0 10 28 7 0 1 29 30 31 43 10 1 3 0 0 0 0 0 5 3 12 22 8 19 13 1 0 0 0
CIN
-0 -0 -0 -0 -0 -0 -0 -0 -0 -0 -0 -38 -6 -0 -0 -0 -13 -1 -8 -51 -41 -67 -65 -0 -0 -0 -0 -0 -5 -22 -19 -6 -4 -6 -11 -17 -3 -2
-0 -0 -0 -0 -0 -0 -0 -4 -0 -0 -3 -0 -0 -0 -0 -0 -16 -1 -40 -31 -15 -19 -44 -24 -0 -0 -0 -0 -0 -1 -15 -1 -10 -0 -0 -2 -5 -0
-0 -0 -0 -0 -0 -0 -0 -7 -1 -0 -0 -1 -6 -0 -0 -0 -20 -33 -34 -25 -43 -26 -22 -30 -0 -0 -11 -1 -0 -0 -0 -0 -5 -6 -30 -42 -24 -18
-0 -0 -0 -0 -0 -0 -0 -1 -1 -0 -0 -0 -1 -0 -0 -1 -43 -54 -32 -20 -30 -25 -13 -27 -17 -0 -1 -3 -1 -0 -0 -0 -0 -11 -11 -12 -10 -8
-0 -0 -0 -0 -0 -0 -0 -0 -0 -0 -0 -0 -0 -0 -0 -12 -57 -39 -32 -30 -29 -22 -12 -15 -23 -19 -2 -0 -3 -0 -0 -0 -0 -2 -6 -11 -4 -12
-0 -0 -0 -0 -0 -0 -0 -0 -0 -0 -0 -0 -0 -0 -0 -25 -52 -48 -38 -52 -52 -24 -33 -0 -0 -1 -0 -0 -0 -0 -0 -0 -2 -0 -0 -0 -0 -0
-0 -0 -0 -3 -3 -6 -0 -0 -0 -0 -0 -0 -0 -0 -0 -6 -50 -72 -48 -53 -26 -65 -52 -64 -0 -0 -0 -0 -0 -0 -0 -0 -0 -18 -7 -0 -0 -0
-0 -0 -0 -12 -18 -40 -66 -70 -19 -0 -0 -0 -0 -0 -0 -0 -0 -15 -65 -71 -76 -82 -56 -50 -0 -0 -0 -0 -0 -0 -0 -0 -0 -0 -0 -0 -0 -0
-0 -0 -0 -0 -8 -0 -5 -27 -34 -42 -40 -4 -0 -0 -0 -0 -0 -0 -10 -31 -8 -67 -39 -30 -0 -0 -0 -0 -1 -0 -0 -0 -1 -0 -0 -0 -0 -0
-0 -0 -0 -0 -0 -1 -0 -0 -0 -0 -14 -21 -2 -0 -0 -0 -0 -0 -0 -0 -6 -14 -37 -0 -0 -0 -6 -0 -0 -7 -3 -6 -0 -0 -0 -0 -0 -0
-0 -0 -0 -0 -2 -4 -0 -0 -0 -0 -4 -16 -11 -5 -15 -23 -12 -0 -0 -0 -15 -28 -0 -0 -0 -0 -0 -0 -0 -14 -0 -2 -0 -0 -0 -0 -0 -0
-0 -0 -5 -11 -1 -12 -8 -0 -0 -0 -0 -1 -24 -25 -51 -55 -56 -14 -0 -0 -0 -34 -49 -2 -0 -11 -2 -0 -0 -0 -5 -0 -0 -0 -0 -0 -0 -0
-0 -1 -8 -3 -1 -30 -38 -5 -0 -1 -1 -2 -0 -0 -2 -6 -20 -56 -0 -0 -0 -2 -45 -31 -25 -16 -3 -0 -0 -0 -0 -0 -1 -2 -0 -0 -0 -0
-16 -5 -2 -20 -22 -32 -25 -18 -16 -58 -59 -17 -0 -0 -0 -0 -3 -20 -31 -30 -11 -7 -5 -14 -11 -10 -10 -0 -0 -0 -2 -2 -2 -0 -0 -0 -0 -0
-99 -107 -90 -80 -54 -65 -41 -35 -35 -96 -77 -71 -52 -37 -26 -13 -11 -0 -9 -14 -0 -0 -0 -16 -0 -0 -0 -0 -0 -0 -2 -0 -0 -0 -0 -0 -0 -0
-0 -0 -0 -0 -0 -0 -48 -34 -34 -110 -84 -62 -40 -12 -18 -24 -27 -17 -8 -0 -0 -1 -6 -0 -6 -0 -9 -2 -0 -0 -6 -0 -0 -1 -1 -37 -0 -0
-0 -0 -0 -0 -0 -0 -0 -0 -23 -15 -0 -23 -18 -1 -0 -0 -0 -0 -2 -4 -2 -3 -2 -0 -6 -0 -0 -0 -0 -0 -0 -1 -10 -36 -78 -1 -0 -0
-0 -0 -0 -0 -0 -0 -0 -0 -0 -0 -0 -3 -0 -0 -0 -0 -0 -0 -0 -0 -5 -0 -1 -0 -0 -0 -0 -0 -6 -1 -2 -21 -55 -42 -17 -0 -0 -0
-0 -0 -0 -0 -0 -0 -0 -0 -0 -0 -6 -0 -0 -0 -0 -0 -0 -0 -0 -0 -0 -0 -0 -0 -0 -0 -0 -0 -7 -12 -108 -4 -1 -0 -0 -0 -0 -0
-14 -19 -10 -0 -0 -0 -0 -0 -0 -0 -0 -0 -0 -0 -0 -0 -0 -0 -0 -0 -0 -0 -0 -0 -0 -0 -0 -0 -0 -4 -4 -5 -0 -0 -0 -0 -0 -0
-5 -15 -11 -5 -5 -3 -0 -0 -0 -1 -0 -0 -0 -0 -0 -0 -0 -0 -0 -0 -1 -0 -0 -0 -0 -0 -0 -0 -0 -0 -0 -0 -0 -0 -0 -0 -0 -0
-0 -2 -3 -0 -2 -6 -1 -2 -1 -0 -0 -0 -0 -0 -0 -0 -0 -0 -0 -0 -0 -0 -0 -0 -0 -0 -0 -0 -0 -1 -0 -0 -0 -0 -0 -0 -0 -0
-18 -1 -1 -0 -20 -2 -9 -4 -9 -0 -0 -0 -1 -0 -0 -0 -0 -0 -0 -0 -0 -0 -0 -0 -0 -0 -0 -0 -0 -0 -0 -0 -0 -0 -0 -0 -0 -0
Wind_Speed
4 5 7 7 9 7 6 6 7 9 14 9 12 7 8 9 15 13 14 nan nan nan nan nan nan nan nan nan nan nan nan nan nan nan nan 25 28 29
6 8 8 10 11 10 9 13 7 9 10 13 14 13 9 11 14 5 14 nan nan nan nan nan nan nan nan nan nan nan nan nan nan nan nan nan nan nan
7 10 10 11 10 14 16 14 11 11 9 10 16 15 16 13 15 14 nan 11 nan 16 nan nan nan nan nan nan nan nan nan nan nan nan nan nan nan nan
7 11 10 11 14 15 13 17 16 13 10 12 17 15 17 19 19 15 14 18 18 24 22 nan nan nan nan nan nan nan nan nan nan nan nan nan nan nan
6 8 13 14 14 13 15 17 17 18 17 13 16 20 22 25 22 22 21 24 24 28 27 nan nan nan nan nan nan nan nan nan nan nan nan nan nan nan
11 10 11 14 15 14 15 15 16 17 20 18 20 21 21 27 24 26 27 nan 27 26 nan nan nan nan nan nan nan nan nan nan nan nan nan nan nan nan
12 13 13 12 15 15 16 18 19 19 20 23 21 25 25 31 29 30 29 nan 29 nan nan nan nan nan nan nan nan nan nan nan nan nan nan nan nan nan
19 14 11 17 16 16 15 15 18 20 19 22 21 27 26 30 33 34 nan nan nan nan nan nan nan nan nan nan nan nan nan nan nan nan nan nan nan nan
20 16 16 16 21 17 22 21 20 18 18 21 22 23 26 32 35 38 36 37 35 nan nan nan nan nan nan nan nan nan nan nan nan nan nan nan nan nan
19 20 19 18 19 22 22 22 21 22 25 25 24 26 28 32 33 33 37 40 45 45 nan nan nan nan nan nan nan nan nan nan nan nan nan nan nan nan
23 22 23 24 24 32 24 21 21 22 31 35 33 39 39 39 37 41 41 45 44 nan nan nan nan nan nan nan nan nan nan nan nan nan nan nan nan nan
28 27 30 26 32 36 31 28 24 27 31 34 34 34 37 37 42 41 47 44 45 nan nan nan nan nan nan nan nan nan nan nan nan nan nan nan nan nan
32 34 43 43 41 41 37 29 30 39 35 40 35 37 39 39 42 44 47 45 48 46 nan nan nan nan nan nan nan nan nan nan nan nan nan nan nan nan
39 39 42 49 44 44 41 40 38 41 41 43 43 38 40 41 44 48 50 52 48 50 nan nan nan nan nan nan nan nan nan nan nan nan nan nan nan nan
nan nan nan nan nan nan nan nan nan nan nan 49 47 46 50 51 54 56 53 56 nan nan nan nan nan nan nan nan nan nan nan nan nan nan nan nan nan nan
nan nan nan nan nan nan nan nan nan nan nan nan 45 50 53 56 58 52 54 55 51 56 nan nan nan nan nan nan nan nan nan nan nan nan nan 37 nan nan
nan nan nan nan nan nan nan nan nan nan nan nan nan nan 50 54 58 60 60 nan nan nan nan nan nan nan nan nan nan nan nan nan nan 49 46 nan nan nan
nan nan nan nan nan nan nan nan nan nan nan nan nan nan nan nan nan nan nan nan nan nan nan nan nan nan nan nan nan 57 58 50 51 nan nan nan nan nan
nan nan nan nan nan nan nan nan nan nan nan nan nan nan nan nan nan nan nan nan nan nan nan nan nan nan nan nan nan nan nan nan nan nan nan nan nan nan
nan nan nan nan nan nan nan nan nan nan nan nan nan nan nan nan nan nan nan nan nan nan nan nan nan nan nan nan nan nan nan nan nan nan nan nan nan nan
nan nan nan nan nan nan nan nan nan nan nan nan nan nan nan nan nan nan nan nan nan nan nan nan nan nan nan nan nan nan nan nan nan nan nan nan nan nan
37 39 nan 38 nan nan nan nan nan nan nan nan nan nan nan nan nan nan nan nan nan nan nan nan nan nan nan nan nan nan nan nan nan nan nan nan nan nan
nan 28 30 32 nan nan nan nan nan nan nan nan nan nan nan nan nan nan nan nan nan nan nan nan nan nan nan nan nan nan nan nan nan nan nan nan nan nan
Wind_Direction
283 275 249 230 246 233 241 214 223 201 228 243 246 267 285 295 274 316 273 nan nan nan nan nan nan nan nan nan nan nan nan nan nan nan nan 301 297 290
281 270 264 251 252 254 249 232 213 240 244 223 251 269 280 278 281 291 263 nan nan nan nan nan nan nan nan nan nan nan nan nan nan nan nan nan nan nan
260 279 275 264 247 243 248 264 240 260 257 251 262 274 273 281 287 285 nan 294 nan 279 nan nan nan nan nan nan nan nan nan nan nan nan nan nan nan nan
295 288 275 275 280 270 265 260 273 257 241 255 262 275 280 286 285 285 280 275 275 278 276 nan nan nan nan nan nan nan nan nan nan nan nan nan nan nan
287 295 287 276 271 252 258 269 274 273 277 267 257 273 268 275 271 266 266 265 266 276 279 nan nan nan nan nan nan nan nan nan nan nan nan nan nan nan
275 274 283 277 273 273 272 270 271 269 272 267 265 269 276 273 274 272 272 nan 281 287 nan nan nan nan nan nan nan nan nan nan nan nan nan nan nan nan
267 269 281 280 268 263 264 278 273 277 274 272 272 277 276 275 281 278 279 nan 283 nan nan nan nan nan nan nan nan nan nan nan nan nan nan nan nan nan
268 273 272 284 286 279 276 267 262 271 273 262 265 266 269 276 280 282 nan nan nan nan nan nan nan nan nan nan nan nan nan nan nan nan nan nan nan nan
259 266 268 269 288 274 286 278 271 272 277 272 276 268 267 277 279 281 284 284 283 nan nan nan nan nan nan nan nan nan nan nan nan nan nan nan nan nan
259 267 269 267 265 269 272 275 278 280 284 276 275 269 274 276 284 285 286 284 274 285 nan nan nan nan nan nan nan nan nan nan nan nan nan nan nan nan
263 267 273 276 275 271 265 259 265 267 273 279 268 257 258 268 272 280 283 285 285 nan nan nan nan nan nan nan nan nan nan nan nan nan nan nan nan nan
274 275 276 267 257 263 273 271 263 260 260 270 275 276 275 278 282 285 283 286 285 nan nan nan nan nan nan nan nan nan nan nan nan nan nan nan nan nan
260 257 257 259 259 258 267 265 263 250 261 266 265 274 278 281 281 285 288 287 286 288 nan nan nan nan nan nan nan nan nan nan nan nan nan nan nan nan
249 251 255 254 260 258 263 266 265 261 266 266 266 269 274 278 280 280 276 276 289 291 nan nan nan nan nan nan nan nan nan nan nan nan nan nan nan nan
nan nan nan nan nan nan nan nan nan nan nan 273 267 272 273 277 274 276 275 270 nan nan nan nan nan nan nan nan nan nan nan nan nan nan nan nan nan nan
nan nan nan nan nan nan nan nan nan nan nan nan 270 263 262 266 271 269 273 279 280 281 nan nan nan nan nan nan nan nan nan nan nan nan nan 280 nan nan
nan nan nan nan nan nan nan nan nan nan nan nan nan nan 271 273 271 274 279 nan nan nan nan nan nan nan nan nan nan nan nan nan nan 282 281 nan nan nan
nan nan nan nan nan nan nan nan nan nan nan nan nan nan nan nan nan nan nan nan nan nan nan nan nan nan nan nan nan 284 288 285 281 nan nan nan nan nan
nan nan nan nan nan nan nan nan nan nan nan nan nan nan nan nan nan nan nan nan nan nan nan nan nan nan nan nan nan nan nan nan nan nan nan nan nan nan
nan nan nan nan nan nan nan nan nan nan nan nan nan nan nan nan nan nan nan nan nan nan nan nan nan nan nan nan nan nan nan nan nan nan nan nan nan nan
nan nan nan nan nan nan nan nan nan nan nan nan nan nan nan nan nan nan nan nan nan nan nan nan nan nan nan nan nan nan nan nan nan nan nan nan nan nan
288 288 nan 283 nan nan nan nan nan nan nan nan nan nan nan nan nan nan nan nan nan nan nan nan nan nan nan nan nan nan nan nan nan nan nan nan nan nan
nan 305 296 291 nan nan nan nan nan nan nan nan nan nan nan nan nan nan nan nan nan nan nan nan nan nan nan nan nan nan nan nan nan nan nan nan nan nan